URSA MAIOR (42776 NORAD) Tracking and Keplerian Element Data

This shows tracking and keplerian element data for the satellite.

Feedback or suggestion? Click here.




ElementValue
Catalog42776
NameURSA MAIOR
Epoch Orbit18514
Epoch Day297.37212716
Epoch Year2020
RAAN345.8803
Inclination97.2846
Eccentricity0.0011934
Argument of Perigee292.2236
Mean Anonmoly67.7734
Mean Motion15.22234225
Decay Rate1.319E-05
L11 42776U 17036M 20297.37212716 .00001319 00000-0 60254-4 0 9997
L22 42776 97.2846 345.8803 0011934 292.2236 67.7734 15.22234225185140

Live tracking and technical data element details for URSA MAIOR (NORAD 42776). URSA MAIOR can be tracked NOW for your location showing map with azimuth and elevation plus other details from your city location.

Track the satellite on the map from your city or location and see movement details for azimuth, elevation, latitude, longitude, range, height, and movement on the map or in text.







IsCatalogInMostPopularTable: catalog: 42776, numindb: 357
Update: records affected: 1



GetName: 42776 URSA MAIOR

Hit Count: updated at: Sun, 25 Oct 2020 08:56:23 GMT